Time,TemperatureF,DewpointF,PressureIn,WindDirection,WindDirectionDegrees,WindSpeedMPH,WindSpeedGustMPH,Humidity,HourlyPrecipIn,Conditions,Clouds,dailyrainin,SoftwareType,DateUTC
2013-04-29 00:02:00,53.0,-99.9,-100.00,SW,236,4.0,7.0,-999,0.00,,,0.00,,2013-04-29 05:02:00,
2013-04-29 00:12:00,53.0,-99.9,-100.00,SW,236,4.0,7.0,-999,0.00,,,0.00,,2013-04-29 05:12:00,
2013-04-29 00:23:00,53.0,-99.9,-100.00,SW,236,4.0,7.0,-999,0.00,,,0.00,,2013-04-29 05:23:00,
2013-04-29 00:32:00,52.0,-99.9,-100.00,SW,233,4.0,5.0,-999,0.00,,,0.00,,2013-04-29 05:32:00,
2013-04-29 00:42:00,52.0,-99.9,-100.00,SW,233,4.0,5.0,-999,0.00,,,0.00,,2013-04-29 05:42:00,
2013-04-29 00:52:00,52.0,-99.9,-100.00,SW,233,4.0,5.0,-999,0.00,,,0.00,,2013-04-29 05:52:00,
2013-04-29 01:02:00,52.0,-99.9,-100.00,SSE,155,1.0,2.0,-999,0.00,,,0.00,,2013-04-29 06:02:00,
2013-04-29 01:12:00,52.0,-99.9,-100.00,SSE,155,1.0,2.0,-999,0.00,,,0.00,,2013-04-29 06:12:00,
2013-04-29 01:22:00,52.0,-99.9,-100.00,SSE,155,1.0,2.0,-999,0.00,,,0.00,,2013-04-29 06:22:00,
2013-04-29 01:32:00,52.0,-99.9,-100.00,SSE,166,3.0,4.0,-999,0.00,,,0.00,,2013-04-29 06:32:00,
2013-04-29 01:42:00,52.0,-99.9,-100.00,SSE,166,3.0,4.0,-999,0.00,,,0.00,,2013-04-29 06:42:00,
2013-04-29 01:52:00,52.0,-99.9,-100.00,SSE,166,3.0,4.0,-999,0.00,,,0.00,,2013-04-29 06:52:00,
2013-04-29 02:02:00,55.0,-99.9,-100.00,South,181,2.0,4.0,-999,0.00,,,0.00,,2013-04-29 07:02:00,
2013-04-29 02:11:00,55.0,-99.9,-100.00,South,181,2.0,4.0,-999,0.00,,,0.00,,2013-04-29 07:11:00,
2013-04-29 02:22:00,55.0,-99.9,-100.00,South,181,2.0,4.0,-999,0.00,,,0.00,,2013-04-29 07:22:00,
2013-04-29 02:32:00,56.0,-99.9,-100.00,South,173,2.0,3.0,-999,0.00,,,0.00,,2013-04-29 07:32:00,
2013-04-29 02:42:00,56.0,-99.9,-100.00,South,173,2.0,3.0,-999,0.00,,,0.00,,2013-04-29 07:42:00,
2013-04-29 02:52:00,56.0,-99.9,-100.00,South,173,2.0,3.0,-999,0.00,,,0.00,,2013-04-29 07:52:00,
2013-04-29 03:03:00,56.0,-99.9,-100.00,South,179,2.0,6.0,-999,0.00,,,0.00,,2013-04-29 08:03:00,
2013-04-29 03:11:00,56.0,-99.9,-100.00,South,179,2.0,6.0,-999,0.00,,,0.00,,2013-04-29 08:11:00,
2013-04-29 03:22:00,56.0,-99.9,-100.00,South,179,2.0,6.0,-999,0.00,,,0.00,,2013-04-29 08:22:00,
2013-04-29 03:32:00,55.0,-99.9,-100.00,SSW,196,1.0,3.0,-999,0.00,,,0.00,,2013-04-29 08:32:00,
2013-04-29 03:42:00,55.0,-99.9,-100.00,SSW,196,1.0,3.0,-999,0.00,,,0.00,,2013-04-29 08:42:00,
2013-04-29 03:52:00,55.0,-99.9,-100.00,SSW,196,1.0,3.0,-999,0.00,,,0.00,,2013-04-29 08:52:00,
2013-04-29 04:02:00,54.0,-99.9,-100.00,South,185,1.0,2.0,-999,0.00,,,-99.99,,2013-04-29 09:02:00,
2013-04-29 04:12:00,54.0,-99.9,-100.00,South,185,1.0,2.0,-999,0.00,,,-99.99,,2013-04-29 09:12:00,
2013-04-29 04:22:00,54.0,-99.9,-100.00,South,185,1.0,2.0,-999,0.00,,,-99.99,,2013-04-29 09:22:00,
2013-04-29 04:33:00,54.0,-99.9,-100.00,South,175,2.0,3.0,-999,0.00,,,0.00,,2013-04-29 09:33:00,
2013-04-29 04:42:00,54.0,-99.9,-100.00,South,175,2.0,3.0,-999,0.00,,,0.00,,2013-04-29 09:42:00,
2013-04-29 04:53:00,54.0,-99.9,-100.00,South,175,2.0,3.0,-999,0.00,,,0.00,,2013-04-29 09:53:00,
2013-04-29 05:03:00,54.0,-99.9,-100.00,SSE,168,2.0,2.0,-999,0.00,,,0.00,,2013-04-29 10:03:00,
2013-04-29 05:12:00,54.0,-99.9,-100.00,SSE,168,2.0,2.0,-999,0.00,,,0.00,,2013-04-29 10:12:00,
2013-04-29 05:23:00,54.0,-99.9,-100.00,SSE,168,2.0,2.0,-999,0.00,,,0.00,,2013-04-29 10:23:00,
2013-04-29 05:32:00,53.0,-99.9,-100.00,South,170,2.0,3.0,-999,0.00,,,0.00,,2013-04-29 10:32:00,
2013-04-29 05:42:00,53.0,-99.9,-100.00,South,170,2.0,3.0,-999,0.00,,,0.00,,2013-04-29 10:42:00,
2013-04-29 05:53:00,53.0,-99.9,-100.00,South,170,2.0,3.0,-999,0.00,,,0.00,,2013-04-29 10:53:00,
2013-04-29 06:03:00,52.0,-99.9,-100.00,SSE,157,2.0,3.0,-999,0.00,,,0.00,,2013-04-29 11:03:00,
2013-04-29 06:12:00,52.0,-99.9,-100.00,SSE,157,2.0,3.0,-999,0.00,,,0.00,,2013-04-29 11:12:00,
2013-04-29 06:22:00,52.0,-99.9,-100.00,SSE,157,2.0,3.0,-999,0.00,,,0.00,,2013-04-29 11:22:00,
2013-04-29 06:32:00,51.0,-99.9,-100.00,SSE,163,1.0,2.0,-999,0.00,,,0.00,,2013-04-29 11:32:00,
2013-04-29 06:42:00,51.0,-99.9,-100.00,SSE,163,1.0,2.0,-999,0.00,,,0.00,,2013-04-29 11:42:00,
2013-04-29 06:52:00,51.0,-99.9,-100.00,SSE,163,1.0,2.0,-999,0.00,,,0.00,,2013-04-29 11:52:00,
2013-04-29 07:02:00,51.0,-99.9,-100.00,NNW,335,2.0,3.0,-999,0.00,,,0.00,,2013-04-29 12:02:00,
2013-04-29 07:12:00,51.0,-99.9,-100.00,NNW,335,2.0,3.0,-999,0.00,,,0.00,,2013-04-29 12:12:00,
2013-04-29 07:22:00,51.0,-99.9,-100.00,NNW,335,2.0,3.0,-999,0.00,,,0.00,,2013-04-29 12:22:00,
2013-04-29 07:32:00,52.0,-99.9,-100.00,SSE,159,2.0,2.0,-999,0.00,,,0.00,,2013-04-29 12:32:00,
2013-04-29 07:42:00,52.0,-99.9,-100.00,SSE,159,2.0,2.0,-999,0.00,,,0.00,,2013-04-29 12:42:00,
2013-04-29 07:52:00,52.0,-99.9,-100.00,SSE,159,2.0,2.0,-999,0.00,,,0.00,,2013-04-29 12:52:00,
2013-04-29 08:01:00,53.0,-99.9,-100.00,SSE,154,1.0,2.0,-999,0.00,,,0.00,,2013-04-29 13:01:00,
2013-04-29 08:11:00,53.0,-99.9,-100.00,SSE,154,1.0,2.0,-999,0.00,,,0.00,,2013-04-29 13:11:00,
2013-04-29 08:22:00,53.0,-99.9,-100.00,SSE,154,1.0,2.0,-999,0.00,,,0.00,,2013-04-29 13:22:00,
2013-04-29 08:32:00,55.0,-99.9,-100.00,SSE,148,4.0,5.0,-999,0.00,,,0.00,,2013-04-29 13:32:00,
2013-04-29 08:42:00,55.0,-99.9,-100.00,SSE,148,4.0,5.0,-999,0.00,,,0.00,,2013-04-29 13:42:00,
2013-04-29 08:52:00,55.0,-99.9,-100.00,SSE,148,4.0,5.0,-999,0.00,,,0.00,,2013-04-29 13:52:00,
2013-04-29 09:02:00,57.0,-99.9,-100.00,SSE,157,5.0,6.0,-999,0.00,,,0.00,,2013-04-29 14:02:00,
2013-04-29 09:12:00,57.0,-99.9,-100.00,SSE,157,5.0,6.0,-999,0.00,,,0.00,,2013-04-29 14:12:00,
2013-04-29 09:22:00,57.0,-99.9,-100.00,SSE,157,5.0,6.0,-999,0.00,,,0.00,,2013-04-29 14:22:00,
2013-04-29 09:32:00,57.0,-99.9,-100.00,SSE,147,5.0,6.0,-999,0.00,,,0.00,,2013-04-29 14:32:00,
2013-04-29 09:42:00,57.0,-99.9,-100.00,SSE,147,5.0,6.0,-999,0.00,,,0.00,,2013-04-29 14:42:00,
2013-04-29 09:52:00,57.0,-99.9,-100.00,SSE,147,5.0,6.0,-999,0.00,,,0.00,,2013-04-29 14:52:00,
2013-04-29 10:02:00,59.0,-99.9,-100.00,SSE,148,3.0,5.0,-999,0.00,,,0.00,,2013-04-29 15:02:00,
2013-04-29 10:12:00,59.0,-99.9,-100.00,SSE,148,3.0,5.0,-999,0.00,,,0.00,,2013-04-29 15:12:00,
2013-04-29 10:22:00,59.0,-99.9,-100.00,SSE,148,3.0,5.0,-999,0.00,,,0.00,,2013-04-29 15:22:00,
2013-04-29 10:33:00,60.0,-99.9,-100.00,ESE,107,2.0,3.0,-999,0.00,,,0.00,,2013-04-29 15:33:00,
2013-04-29 10:43:00,60.0,-99.9,-100.00,ESE,107,2.0,3.0,-999,0.00,,,0.00,,2013-04-29 15:43:00,
2013-04-29 10:53:00,60.0,-99.9,-100.00,ESE,107,2.0,3.0,-999,0.00,,,0.00,,2013-04-29 15:53:00,
2013-04-29 11:03:00,62.0,-99.9,-100.00,SE,130,1.0,3.0,-999,0.00,,,0.00,,2013-04-29 16:03:00,
2013-04-29 11:13:00,62.0,-99.9,-100.00,SE,130,1.0,3.0,-999,0.00,,,0.00,,2013-04-29 16:13:00,
2013-04-29 11:23:00,62.0,-99.9,-100.00,SE,130,1.0,3.0,-999,0.00,,,0.00,,2013-04-29 16:23:00,
2013-04-29 11:33:00,61.0,-99.9,-100.00,SSE,153,0.0,1.0,-999,0.00,,,0.00,,2013-04-29 16:33:00,
2013-04-29 11:42:00,61.0,-99.9,-100.00,SSE,153,0.0,1.0,-999,0.00,,,0.00,,2013-04-29 16:42:00,
2013-04-29 11:53:00,61.0,-99.9,-100.00,SSE,153,0.0,1.0,-999,0.00,,,0.00,,2013-04-29 16:53:00,
2013-04-29 12:02:00,59.0,-99.9,-100.00,East,86,3.0,6.0,-999,0.00,,,0.00,,2013-04-29 17:02:00,
2013-04-29 12:12:00,59.0,-99.9,-100.00,East,86,3.0,6.0,-999,0.00,,,0.00,,2013-04-29 17:12:00,
2013-04-29 12:23:00,59.0,-99.9,-100.00,East,86,3.0,6.0,-999,0.00,,,0.00,,2013-04-29 17:23:00,
2013-04-29 12:32:00,62.0,-99.9,-100.00,SE,127,4.0,7.0,-999,0.00,,,0.00,,2013-04-29 17:32:00,
2013-04-29 12:42:00,62.0,-99.9,-100.00,SE,127,4.0,7.0,-999,0.00,,,0.00,,2013-04-29 17:42:00,
2013-04-29 12:52:00,62.0,-99.9,-100.00,SE,127,4.0,7.0,-999,0.00,,,0.00,,2013-04-29 17:52:00,
2013-04-29 13:01:00,65.0,-99.9,-100.00,SSE,160,2.0,4.0,-999,0.00,,,0.00,,2013-04-29 18:01:00,
2013-04-29 13:13:00,65.0,-99.9,-100.00,SSE,160,2.0,4.0,-999,0.00,,,0.00,,2013-04-29 18:13:00,
2013-04-29 13:22:00,65.0,-99.9,-100.00,SSE,160,2.0,4.0,-999,0.00,,,0.00,,2013-04-29 18:22:00,
2013-04-29 13:30:00,66.0,-99.9,-100.00,SE,127,6.0,9.0,-999,0.00,,,0.00,,2013-04-29 18:30:00,
2013-04-29 13:32:00,66.0,-99.9,-100.00,SE,139,3.0,5.0,-999,0.00,,,0.00,,2013-04-29 18:32:00,
2013-04-29 13:42:00,66.0,-99.9,-100.00,SE,139,3.0,5.0,-999,0.00,,,0.00,,2013-04-29 18:42:00,
2013-04-29 13:52:00,66.0,-99.9,-100.00,SE,139,3.0,5.0,-999,0.00,,,0.00,,2013-04-29 18:52:00,
2013-04-29 14:01:00,66.0,-99.9,-100.00,SE,127,6.0,9.0,-999,0.00,,,0.00,,2013-04-29 19:01:00,
2013-04-29 14:12:00,66.0,-99.9,-100.00,SE,127,6.0,9.0,-999,0.00,,,0.00,,2013-04-29 19:12:00,
2013-04-29 14:22:00,66.0,-99.9,-100.00,SE,127,6.0,9.0,-999,0.00,,,0.00,,2013-04-29 19:22:00,
2013-04-29 15:32:00,70.0,-99.9,-100.00,SSE,148,11.0,13.0,-999,0.00,,,0.00,,2013-04-29 20:32:00,
2013-04-29 15:43:00,70.0,-99.9,-100.00,SSE,148,11.0,13.0,-999,0.00,,,0.00,,2013-04-29 20:43:00,
2013-04-29 15:52:00,70.0,-99.9,-100.00,SSE,148,11.0,13.0,-999,0.00,,,0.00,,2013-04-29 20:52:00,
2013-04-29 16:02:00,71.0,-99.9,-100.00,SSE,153,14.0,24.0,-999,0.00,,,0.00,,2013-04-29 21:02:00,
2013-04-29 16:12:00,71.0,-99.9,-100.00,SSE,153,14.0,24.0,-999,0.00,,,0.00,,2013-04-29 21:12:00,
2013-04-29 16:22:00,71.0,-99.9,-100.00,SSE,153,14.0,24.0,-999,0.00,,,0.00,,2013-04-29 21:22:00,
2013-04-29 16:33:00,74.0,-99.9,-100.00,SSE,159,11.0,17.0,-999,0.00,,,0.00,,2013-04-29 21:33:00,
2013-04-29 16:43:00,74.0,-99.9,-100.00,SSE,159,11.0,17.0,-999,0.00,,,0.00,,2013-04-29 21:43:00,
2013-04-29 16:53:00,74.0,-99.9,-100.00,SSE,159,11.0,17.0,-999,0.00,,,0.00,,2013-04-29 21:53:00,
2013-04-29 17:03:00,74.0,-99.9,-100.00,SSE,163,11.0,17.0,-999,0.00,,,0.00,,2013-04-29 22:03:00,
2013-04-29 17:13:00,74.0,-99.9,-100.00,SSE,163,11.0,17.0,-999,0.00,,,0.00,,2013-04-29 22:13:00,
2013-04-29 17:23:00,74.0,-99.9,-100.00,SSE,163,11.0,17.0,-999,0.00,,,0.00,,2013-04-29 22:23:00,
2013-04-29 17:33:00,77.0,-99.9,-100.00,SSE,168,9.0,13.0,-999,0.00,,,0.00,,2013-04-29 22:33:00,
2013-04-29 17:42:00,77.0,-99.9,-100.00,SSE,168,9.0,13.0,-999,0.00,,,0.00,,2013-04-29 22:42:00,
2013-04-29 17:53:00,77.0,-99.9,-100.00,SSE,168,9.0,13.0,-999,0.00,,,0.00,,2013-04-29 22:53:00,
2013-04-29 18:02:00,76.0,-99.9,-100.00,SSE,160,7.0,12.0,-999,0.00,,,0.00,,2013-04-29 23:02:00,
2013-04-29 18:12:00,76.0,-99.9,-100.00,SSE,160,7.0,12.0,-999,0.00,,,0.00,,2013-04-29 23:12:00,
2013-04-29 18:22:00,76.0,-99.9,-100.00,SSE,160,7.0,12.0,-999,0.00,,,0.00,,2013-04-29 23:22:00,
2013-04-29 18:32:00,76.0,-99.9,-100.00,SSE,160,9.0,12.0,-999,0.00,,,0.00,,2013-04-29 23:32:00,
2013-04-29 18:42:00,76.0,-99.9,-100.00,SSE,160,9.0,12.0,-999,0.00,,,0.00,,2013-04-29 23:42:00,
2013-04-29 18:53:00,76.0,-99.9,-100.00,SSE,160,9.0,12.0,-999,0.00,,,0.00,,2013-04-29 23:53:00,
2013-04-29 19:01:00,71.0,-99.9,-100.00,SSE,160,6.0,7.0,-999,0.00,,,0.00,,2013-04-30 00:01:00,
2013-04-29 19:12:00,71.0,-99.9,-100.00,SSE,160,6.0,7.0,-999,0.00,,,0.00,,2013-04-30 00:12:00,
2013-04-29 19:22:00,71.0,-99.9,-100.00,SSE,160,6.0,7.0,-999,0.00,,,0.00,,2013-04-30 00:22:00,
2013-04-29 19:30:00,71.0,-99.9,-100.00,South,173,3.0,6.0,-999,0.00,,,0.00,,2013-04-30 00:30:00,
2013-04-29 19:32:00,72.0,-99.9,-100.00,SSE,158,5.0,8.0,-999,0.00,,,0.00,,2013-04-30 00:32:00,
2013-04-29 19:42:00,72.0,-99.9,-100.00,SSE,158,5.0,8.0,-999,0.00,,,0.00,,2013-04-30 00:42:00,
2013-04-29 19:52:00,72.0,-99.9,-100.00,SSE,158,5.0,8.0,-999,0.00,,,0.00,,2013-04-30 00:52:00,
2013-04-29 20:02:00,71.0,-99.9,-100.00,South,173,3.0,6.0,-999,0.00,,,0.00,,2013-04-30 01:02:00,
2013-04-29 20:12:00,71.0,-99.9,-100.00,South,173,3.0,6.0,-999,0.00,,,0.00,,2013-04-30 01:12:00,
2013-04-29 20:22:00,71.0,-99.9,-100.00,South,173,3.0,6.0,-999,0.00,,,0.00,,2013-04-30 01:22:00,
2013-04-29 21:02:00,69.0,-99.9,-100.00,SSE,162,9.0,11.0,-999,0.00,,,0.00,,2013-04-30 02:02:00,
2013-04-29 21:11:00,69.0,-99.9,-100.00,SSE,162,9.0,11.0,-999,0.00,,,0.00,,2013-04-30 02:11:00,
2013-04-29 21:21:00,69.0,-99.9,-100.00,SSE,162,9.0,11.0,-999,0.00,,,0.00,,2013-04-30 02:21:00,
2013-04-29 21:30:00,72.0,-99.9,-100.00,SSE,168,9.0,13.0,-999,0.00,,,0.00,,2013-04-30 02:30:00,
2013-04-29 21:32:00,71.0,-99.9,-100.00,SSE,163,11.0,17.0,-999,0.00,,,0.00,,2013-04-30 02:32:00,
2013-04-29 21:42:00,71.0,-99.9,-100.00,SSE,163,11.0,17.0,-999,0.00,,,0.00,,2013-04-30 02:42:00,
2013-04-29 21:52:00,71.0,-99.9,-100.00,SSE,163,11.0,17.0,-999,0.00,,,0.00,,2013-04-30 02:52:00,
2013-04-29 22:01:00,72.0,-99.9,-100.00,SSE,168,9.0,13.0,-999,0.00,,,0.00,,2013-04-30 03:01:00,
2013-04-29 22:11:00,72.0,-99.9,-100.00,SSE,168,9.0,13.0,-999,0.00,,,0.00,,2013-04-30 03:11:00,
2013-04-29 22:22:00,72.0,-99.9,-100.00,SSE,168,9.0,13.0,-999,0.00,,,0.00,,2013-04-30 03:22:00,
2013-04-29 23:30:00,68.0,-99.9,-100.00,SSE,160,11.0,16.0,-999,-99.99,,,0.00,,2013-04-30 04:30:00,